Location: Austin
(30.3000°N, 97.7500°W)
Time: 23:19:47
(UTC-06:00)

H-2A R/B - Pass Details

Date: 01 August 2025
Orbit: 519 x 533 km, 98.2° (Epoch: 6 March)

Event Time Altitude Azimuth Distance (km) Brightness Sun altitude
Rises 04:50:27 0° 19° (NNE) 2,644 7.7 -23.1°
Reaches altitude 10° 04:52:37 10° 25° (NNE) 1,752 6.8 -22.7°
Maximum altitude 04:56:16 48° 100° (E) 685 4.0 -22.1°
Enters shadow 04:57:17 37° 146° (SSE) 821 4.1 -21.9°
